Terminal Aerodrome Forecast
Issued by NWS

Home | Current Version | Previous Version | Graphics & Text | Print | Product List | Glossary On
Versions: 1 2 3 4 5 6 7 8 9 10 11 12 13 14 15
000
FTUS43 KFGF 152300
TAFBJI
TAF
KBJI 152320Z 1600/1624 24006KT P6SM SKC
      TEMPO 1600/1601 SCT060=

USA.gov is the U.S. government's official web portal to all federal, state and local government web resources and services.